User: anonymous   Login
Location: Caltech
(34.1382°N, 118.1253°W)
Time: 17:06:33
(UTC-08:00)
Language:

Cosmos 2237 Rocket - Orbit

View from above orbital plane
View from above orbital plane
View from above satellite
View from above satellite

Ground track
Ground track

The orbit data is extracted from the following two-line orbital elements,

1 22566U 93016B   15026.24823727  .00000290  00000-0  17442-3 0  2590
2 22566 071.0082 099.1810 0009976 009.4252 350.7056 14.14878721127797
Epoch (UTC): 26 January 2015 05:57:27
Eccentricity: 0.0009976
inclination: 71.0082°
perigee height: 835 km
apogee height: 850 km
right ascension of ascending node: 99.1810°
argument of perigee: 9.4252°
revolutions per day: 14.14878721
mean anomaly at epoch: 350.7056°
orbit number at epoch: 12779

The dashed part of the orbit path shows where the satellite is in the earth's shadow,  

DLR